Flag for U.S.A. Weather past 2 weeks in Manhattan, Kansas, U.S.A.

Now
46 °F

Clear.


Feels Like: 46 °F
Forecast: 42 / 80 °F
Wind: No wind

Location: Manhattan Municipal Airport


UV Index: 5 (Moderate)

Visibility: 10 mi


Pressure: 29.87 "Hg

Humidity: 89%

Dew point: 43 °F

Location of ManhattanLocation

Historic Weather in Manhattan

°F

Manhattan temperature yesterday

Maximum temperature yesterday: 85 °F (at 4:52 PM)
Minimum temperature yesterday: 53 °F (at 12:52 AM)
Average temperature yesterday: 69 °F

Past Weeks' High & Low Weather Summary

 TemperatureHumidityPressure
High88 °F (Apr 12, 4:52 PM)100% (Apr 24, 7:52 AM)30.34 "Hg (Apr 24, 7:52 AM)
Low23 °F (Apr 15, 5:52 AM)19% (Apr 11, 11:52 AM)29.43 "Hg (Apr 12, 8:52 PM)
Average58 °F53%29.94 "Hg
* Reported Apr 9 9:52 PM — Apr 24 9:52 PM, Manhattan, Weather by CustomWeather, © 2014

Note: Actual official high and low records may vary slightly from our data, if they occured in-between our weather recording intervals... More about our weather records

Advertising

Historic Weather Conditions — Data for Previous 24 hours

 ConditionsComfort  
Time TempWeatherWind HumidityBarometerVisibility
9:52 PM
Apr 24
48 °FClear.No wind86%29.85 "Hg10 mi
8:52 PM56 °FSunny.3 mph62%29.82 "Hg10 mi
7:52 PM60 °FSunny.No wind56%29.81 "Hg10 mi
6:52 PM66 °FSunny.8 mph45%29.80 "Hg10 mi
5:52 PM67 °FSunny.9 mph41%29.80 "Hg10 mi
4:52 PM63 °FSunny.8 mph48%29.79 "Hg10 mi
3:52 PM63 °FPartly sunny.10 mph47%29.77 "Hg10 mi
2:52 PM60 °FOvercast.8 mph62%29.75 "Hg10 mi
1:52 PM58 °FOvercast.12 mph67%29.73 "Hg10 mi
12:52 PM58 °FOvercast.10 mph75%29.72 "Hg10 mi
11:52 AM54 °FLight rain. Cloudy.13 mph90%29.66 "Hg10 mi
10:59 AM54 °FRain. Fog.15 mph93%29.75 "Hg3 mi
9:52 AM57 °FLight rain. Fog.6 mph100%29.66 "Hg3 mi
8:52 AM57 °FMostly cloudy.3 mph96%29.66 "Hg8 mi
7:52 AM55 °FLight rain. Partly sunny.6 mph100%29.63 "Hg7 mi
6:52 AM55 °FPassing clouds.No windN/A29.59 "Hg9 mi
5:58 AM55 °FLight rain. Mostly cloudy.6 mphN/A29.64 "Hg6 mi
4:59 AM58 °FThundershowers. Overcast.8 mph87%29.60 "Hg9 mi
3:52 AM66 °FMostly cloudy.7 mph56%29.59 "Hg10 mi
2:52 AM73 °FPassing clouds.14 mph46%29.57 "Hg10 mi
1:52 AM73 °FClear.17 mph53%29.47 "Hg10 mi
12:52 AM73 °FClear.21 mph51%29.46 "Hg10 mi
11:52 PM
Apr 23
74 °FClear.22 mph48%29.46 "Hg10 mi
Weather by CustomWeather, © 2014

See weather overview